PLF130 OERK-EPWA

Flight info

Callsign PLF130
Flight time N/A
Altitude 36000
Route IVONU M321 HLF L604 WEJ L677 DARAX/N0476F380 L677 CVO A16 RASDA DCT USEBE M855 MAROS DCT PEDER DCT TOMBI UA16 AYT UQ23 OSVEL UL619 RAVGO/N0461F400 UL619 MAKOL DCT ARGES DCT KARIL/N0460F340 DCT KEKED DCT LENOV DCT ORTEB DCT KONZI DCT LOGDA
Aircraft B738/M-SDE2E3FGHIRWXY/LB1

Departure

Time 2026-04-28 22:16
Airport King Khalid International Airport (OERK)

Arrival

Time N/A
Airport Warsaw Chopin Airport (EPWA)
Time Latitude Longitude Altitude Speed Heading
2026-04-28 21:36 24.96335 46.72359 2034 ft 0 kts 60°
2026-04-28 22:05 24.96334 46.72358 2030 ft 1 kts 60°
2026-04-28 22:06 24.96324 46.72339 2040 ft 2 kts 60°
2026-04-28 22:06 24.96315 46.72317 2039 ft 4 kts 84°
2026-04-28 22:06 24.96320 46.72292 2037 ft 4 kts 139°
2026-04-28 22:06 24.96341 46.72277 2040 ft 4 kts 150°
2026-04-28 22:07 24.96357 46.72267 2048 ft 0 kts 150°
2026-04-28 22:09 24.96340 46.72278 2038 ft 7 kts 150°
2026-04-28 22:09 24.96276 46.72318 2030 ft 14 kts 150°
2026-04-28 22:10 24.96173 46.72384 2032 ft 20 kts 150°
2026-04-28 22:10 24.96090 46.72435 2033 ft 10 kts 154°
2026-04-28 22:10 24.96033 46.72412 2032 ft 10 kts 236°
2026-04-28 22:10 24.95996 46.72342 2035 ft 12 kts 240°
2026-04-28 22:11 24.95947 46.72249 2030 ft 16 kts 240°
2026-04-28 22:11 24.95891 46.72154 2033 ft 12 kts 216°
2026-04-28 22:11 24.95817 46.72171 2035 ft 11 kts 151°
2026-04-28 22:11 24.95737 46.72221 2034 ft 16 kts 150°
2026-04-28 22:12 24.95625 46.72292 2032 ft 21 kts 150°
2026-04-28 22:12 24.95486 46.72380 2031 ft 25 kts 150°
2026-04-28 22:12 24.95338 46.72473 2033 ft 21 kts 150°
2026-04-28 22:12 24.95241 46.72491 2031 ft 13 kts 221°
2026-04-28 22:13 24.95194 46.72404 2034 ft 14 kts 240°
2026-04-28 22:13 24.95139 46.72299 2037 ft 18 kts 240°
2026-04-28 22:13 24.95066 46.72162 2037 ft 23 kts 240°
2026-04-28 22:13 24.94987 46.72010 2036 ft 20 kts 240°
2026-04-28 22:14 24.94876 46.71979 2033 ft 19 kts 152°
2026-04-28 22:14 24.94755 46.72054 2034 ft 23 kts 151°
2026-04-28 22:14 24.94598 46.72155 2035 ft 28 kts 150°
2026-04-28 22:14 24.94452 46.72207 2037 ft 15 kts 165°
2026-04-28 22:15 24.94476 46.72232 2037 ft 11 kts 330°
2026-04-28 22:15 24.94580 46.72165 2037 ft 38 kts 330°
2026-04-28 22:15 24.95003 46.71897 2036 ft 102 kts 330°
2026-04-28 22:15 24.95797 46.71393 2034 ft 156 kts 330°
2026-04-28 22:16 24.96858 46.70717 2115 ft 193 kts 330°
2026-04-28 22:16 24.98051 46.69956 2706 ft 204 kts 333°
2026-04-28 22:16 24.99391 46.69405 3384 ft 207 kts 345°
2026-04-28 22:16 25.00771 46.68911 3982 ft 214 kts 343°
2026-04-28 22:17 25.02262 46.68355 4132 ft 237 kts 342°
2026-04-28 22:17 25.03858 46.67733 4514 ft 249 kts 341°
2026-04-28 22:17 25.05530 46.67058 4882 ft 265 kts 341°
2026-04-28 22:17 25.07269 46.66208 5245 ft 282 kts 324°
2026-04-28 22:18 25.08536 46.64595 5848 ft 287 kts 295°
2026-04-28 22:18 25.08936 46.62453 6527 ft 287 kts 266°
2026-04-28 22:18 25.08636 46.60327 7491 ft 274 kts 257°
2026-04-28 22:18 25.08247 46.58287 8298 ft 273 kts 257°
2026-04-28 22:19 25.07864 46.56221 8933 ft 277 kts 257°
2026-04-28 22:19 25.07553 46.54093 9248 ft 283 kts 264°
2026-04-28 22:19 25.07503 46.51926 9493 ft 282 kts 268°
2026-04-28 22:19 25.07496 46.49765 9631 ft 285 kts 267°
2026-04-28 22:20 25.07475 46.47564 9629 ft 286 kts 268°
2026-04-28 22:20 25.07459 46.45407 10253 ft 283 kts 267°
2026-04-28 22:20 25.07427 46.43278 11218 ft 271 kts 266°
2026-04-28 22:20 25.07394 46.41230 12153 ft 265 kts 266°
2026-04-28 22:21 25.07354 46.39133 12470 ft 283 kts 265°
2026-04-28 22:21 25.07298 46.36879 12639 ft 304 kts 265°
2026-04-28 22:21 25.07240 46.34470 12799 ft 324 kts 266°
2026-04-28 22:21 25.07181 46.31910 12959 ft 343 kts 265°
2026-04-28 22:22 25.06999 46.24343 13395 ft 383 kts 265°
2026-04-28 22:22 25.06726 46.12331 15007 ft 398 kts 266°
2026-04-28 22:22 25.06433 45.99953 16875 ft 405 kts 266°
2026-04-28 22:22 25.06120 45.87321 18363 ft 419 kts 266°
2026-04-28 22:23 25.05783 45.74433 19926 ft 421 kts 266°
2026-04-28 22:23 25.06085 45.61391 21125 ft 435 kts 276°
2026-04-28 22:23 25.08725 45.48263 22363 ft 441 kts 279°
2026-04-28 22:23 25.11184 45.34958 23459 ft 446 kts 276°
2026-04-28 22:24 25.13392 45.21551 24337 ft 449 kts 276°
2026-04-28 22:24 25.15642 45.08024 25267 ft 448 kts 276°
2026-04-28 22:24 25.17895 44.94509 26142 ft 444 kts 276°
2026-04-28 22:24 25.20095 44.81214 27287 ft 436 kts 276°
2026-04-28 22:25 25.22258 44.68037 28243 ft 432 kts 276°
2026-04-28 22:25 25.24374 44.55092 29403 ft 424 kts 276°
2026-04-28 22:25 25.26574 44.42330 30299 ft 421 kts 277°
2026-04-28 22:25 25.29046 44.29690 31164 ft 417 kts 278°
2026-04-28 22:26 25.31395 44.17384 32088 ft 412 kts 277°
2026-04-28 22:26 25.33709 44.05040 33082 ft 407 kts 277°
2026-04-28 22:26 25.35980 43.92888 34140 ft 400 kts 277°
2026-04-28 22:26 25.38229 43.80789 34771 ft 402 kts 277°
2026-04-28 22:27 25.40469 43.68700 35586 ft 399 kts 277°
2026-04-28 22:27 25.42692 43.56647 36327 ft 398 kts 277°
2026-04-28 22:27 25.46459 43.36108 37411 ft 398 kts 277°
2026-04-28 22:27 25.50839 43.12006 38111 ft 400 kts 276°
2026-04-28 22:28 25.55150 42.87892 38031 ft 406 kts 277°
2026-04-28 22:28 25.59604 42.63329 37893 ft 405 kts 277°
2026-04-28 22:28 25.63933 42.39032 37948 ft 401 kts 276°
2026-04-28 22:29 25.75417 41.91300 37992 ft 398 kts 282°
2026-04-28 22:29 25.87830 41.44782 37985 ft 390 kts 280°
2026-04-28 22:30 26.00006 40.98546 37985 ft 387 kts 280°
2026-04-28 22:30 26.11840 40.52630 38021 ft 386 kts 279°
2026-04-28 22:31 26.23543 40.06577 38028 ft 386 kts 279°